Liberal, KS

11:16 AM CDT on June 26, 2017 (GMT -0500)
Liberal Municipal

Weather History for KLBL - November, 2013

Change the Weather History Date:

Friday, November 8, 2013

  Actual Average Record
Temperature  
Mean Temperature 56 °F -  
Max Temperature 73 °F 63 °F 84 °F (2006)
Min Temperature 39 °F 36 °F 18 °F (1955)
Degree Days  
Heating Degree Days 9    
Growing Degree Days 6 (Base 50)    
Moisture  
Dew Point 26 °F    
Average Humidity 36    
Maximum Humidity 53    
Minimum Humidity 18    
Precipitation  
Precipitation 0.00 in - - ()
Sea Level Pressure  
Sea Level Pressure 29.97 in    
Wind  
Wind Speed 20 mph (SSW)    
Max Wind Speed 32 mph    
Max Gust Speed 40 mph    
Visibility 10 miles    
Events      
Averages and records for this station are not official NWS values.
T = Trace of Precipitation, MM = Missing Value Source: NWS Daily Summary

Daily Weather History Graph

Daily Weather History Graph

Search for Another Location

Airport or City:

Trip Planner

Search our weather history database for the weather conditions in past years. The results will help you decide how hot, cold, wet, or windy it might be!

Date:

Astronomy

Nov. 08, 2013 Rise Set
Actual Time 7:15 AM CST 5:39 PM CST
Civil Twilight 6:48 AM CST 6:06 PM CST
Nautical Twilight 6:17 AM CST 6:37 PM CST
Astronomical Twilight 5:46 AM CST 7:08 PM CST
Moon 12:12 PM CST (11/8) 11:01 PM CST (11/8)
Length of Visible Light 11h 18m
Length of Day
10h 23m
Waxing Crescent, 33% of the Moon is Illuminated
Nov 8
Waxing Crescent
Nov 9
First Quarter
Nov 17
Full
Nov 25
Last Quarter
Dec 2
New

Hourly Weather History & Observations

Time (CST) Temp. Windchill Dew Point Humidity Pressure Visibility Wind Dir Wind Speed Gust Speed Precip Events Conditions
12:15 AM 42.8 °F 35.4 °F 26.6 °F 53% 30.19 in 10.0 mi South 15.0 mph - N/A   Clear
12:35 AM 44.6 °F 37.2 °F 26.6 °F 49% 30.18 in 10.0 mi SSW 17.3 mph - N/A   Clear
12:55 AM 42.8 °F 34.8 °F 24.8 °F 49% 30.17 in 10.0 mi SSW 17.3 mph - N/A   Clear
1:15 AM 44.6 °F 36.9 °F 24.8 °F 46% 30.16 in 10.0 mi SSW 18.4 mph - N/A   Clear
1:35 AM 46.4 °F 39.0 °F 24.8 °F 43% 30.16 in 10.0 mi SSW 19.6 mph 26.5 mph N/A   Clear
1:55 AM 46.4 °F 39.0 °F 24.8 °F 43% 30.15 in 10.0 mi SSW 19.6 mph - N/A   Clear
2:15 AM 44.6 °F 36.9 °F 23.0 °F 43% 30.14 in 10.0 mi SSW 18.4 mph - N/A   Clear
2:35 AM 44.6 °F 36.6 °F 23.0 °F 43% 30.13 in 10.0 mi SSW 19.6 mph - N/A   Clear
2:55 AM 42.8 °F 34.5 °F 23.0 °F 46% 30.12 in 10.0 mi SSW 18.4 mph - N/A   Clear
3:15 AM 42.8 °F 34.8 °F 23.0 °F 46% 30.11 in 10.0 mi SSW 17.3 mph - N/A   Clear
3:35 AM 42.8 °F 34.5 °F 23.0 °F 46% 30.10 in 10.0 mi SSW 18.4 mph - N/A   Clear
3:55 AM 42.8 °F 34.5 °F 23.0 °F 46% 30.09 in 10.0 mi SSW 18.4 mph - N/A   Clear
4:15 AM 42.8 °F 34.5 °F 23.0 °F 46% 30.08 in 10.0 mi SSW 18.4 mph - N/A   Clear
4:35 AM 42.8 °F 34.3 °F 23.0 °F 46% 30.07 in 10.0 mi SSW 19.6 mph - N/A   Clear
4:55 AM 42.8 °F 34.0 °F 21.2 °F 42% 30.06 in 10.0 mi SSW 20.7 mph 25.3 mph N/A   Clear
5:15 AM 42.8 °F 34.0 °F 21.2 °F 42% 30.06 in 10.0 mi SSW 20.7 mph 27.6 mph N/A   Clear
5:35 AM 42.8 °F 34.5 °F 21.2 °F 42% 30.05 in 10.0 mi SSW 18.4 mph - N/A   Clear
5:55 AM 41.0 °F 33.1 °F 21.2 °F 45% 30.05 in 10.0 mi SSW 15.0 mph - N/A   Clear
6:15 AM 41.0 °F 32.5 °F 21.2 °F 45% 30.04 in 10.0 mi SSW 17.3 mph - N/A   Clear
6:35 AM 39.2 °F 30.5 °F 21.2 °F 49% 30.03 in 10.0 mi SSW 16.1 mph - N/A   Clear
6:55 AM 42.8 °F 34.8 °F 23.0 °F 46% 30.03 in 10.0 mi SSW 17.3 mph - N/A   Clear
7:15 AM 41.0 °F 32.2 °F 21.2 °F 45% 30.02 in 10.0 mi SSW 18.4 mph - N/A   Clear
7:35 AM 42.8 °F 34.0 °F 21.2 °F 42% 30.02 in 10.0 mi SSW 20.7 mph 26.5 mph N/A   Clear
7:55 AM 42.8 °F 33.5 °F 23.0 °F 46% 30.02 in 10.0 mi SSW 23.0 mph 28.8 mph N/A   Clear
8:15 AM 44.6 °F 35.9 °F 23.0 °F 43% 30.02 in 10.0 mi SSW 23.0 mph 29.9 mph N/A   Clear
8:35 AM 46.4 °F 38.1 °F 24.8 °F 43% 30.02 in 10.0 mi SSW 24.2 mph 28.8 mph N/A   Clear
8:55 AM 46.4 °F 37.5 °F 24.8 °F 43% 30.01 in 10.0 mi SSW 27.6 mph 31.1 mph N/A   Clear
9:15 AM 48.2 °F - 24.8 °F 40% 30.00 in 10.0 mi SSW 28.8 mph 35.7 mph N/A   Clear
9:35 AM 50.0 °F - 26.6 °F 40% 30.00 in 10.0 mi SSW 25.3 mph 29.9 mph N/A   Clear
9:55 AM 51.8 °F - 24.8 °F 35% 29.99 in 10.0 mi SSW 23.0 mph 32.2 mph N/A   Clear
10:15 AM 55.4 °F - 28.4 °F 36% 29.99 in 10.0 mi SW 23.0 mph 26.5 mph N/A   Clear
10:35 AM 57.2 °F - 26.6 °F 31% 29.98 in 10.0 mi SW 27.6 mph 33.4 mph N/A   Clear
10:55 AM 57.2 °F - 26.6 °F 31% 29.98 in 10.0 mi SW 27.6 mph 35.7 mph N/A   Clear
11:15 AM 60.8 °F - 26.6 °F 27% 29.96 in 10.0 mi SW 28.8 mph 33.4 mph N/A   Clear
11:35 AM 62.6 °F - 28.4 °F 27% 29.95 in 10.0 mi SW 31.1 mph 40.3 mph N/A   Clear
11:55 AM 64.4 °F - 28.4 °F 26% 29.94 in 10.0 mi SSW 31.1 mph 39.1 mph N/A   Clear
12:15 PM 66.2 °F - 28.4 °F 24% 29.92 in 10.0 mi SSW 26.5 mph 36.8 mph N/A   Clear
12:35 PM 69.8 °F - 28.4 °F 21% 29.90 in 10.0 mi SW 25.3 mph 34.5 mph N/A   Clear
12:55 PM 69.8 °F - 28.4 °F 21% 29.89 in 10.0 mi SW 28.8 mph 38.0 mph N/A   Clear
1:15 PM 71.6 °F - 26.6 °F 19% 29.87 in 10.0 mi SW 31.1 mph 35.7 mph N/A   Clear
1:35 PM 71.6 °F - 26.6 °F 19% 29.87 in 10.0 mi SW 26.5 mph 34.5 mph N/A   Clear
1:55 PM 73.4 °F - 26.6 °F 18% 29.86 in 10.0 mi SW 26.5 mph 34.5 mph N/A   Clear
2:15 PM 73.4 °F - 26.6 °F 18% 29.85 in 10.0 mi SW 29.9 mph 35.7 mph N/A   Clear
2:35 PM 73.4 °F - 26.6 °F 18% 29.85 in 10.0 mi SSW 28.8 mph 35.7 mph N/A   Clear
2:55 PM 73.4 °F - 28.4 °F 19% 29.84 in 10.0 mi SSW 29.9 mph 38.0 mph N/A   Clear
3:15 PM 73.4 °F - 28.4 °F 19% 29.83 in 10.0 mi SSW 32.2 mph 35.7 mph N/A   Clear
3:35 PM 73.4 °F - 26.6 °F 18% 29.83 in 10.0 mi SSW 27.6 mph 36.8 mph N/A   Clear
3:55 PM 73.4 °F - 28.4 °F 19% 29.84 in 10.0 mi SW 27.6 mph 35.7 mph N/A   Clear
4:15 PM 73.4 °F - 28.4 °F 19% 29.84 in 10.0 mi SW 25.3 mph 32.2 mph N/A   Clear
4:35 PM 73.4 °F - 28.4 °F 19% 29.83 in 10.0 mi SW 18.4 mph - N/A   Clear
4:55 PM 71.6 °F - 28.4 °F 20% 29.83 in 10.0 mi SSW 21.9 mph - N/A   Clear
5:15 PM 69.8 °F - 28.4 °F 21% 29.82 in 10.0 mi SSW 20.7 mph 26.5 mph N/A   Clear
5:35 PM 68.0 °F - 28.4 °F 23% 29.83 in 10.0 mi SSW 16.1 mph - N/A   Clear
5:55 PM 62.6 °F - 26.6 °F 26% 29.84 in 10.0 mi SSW 10.4 mph - N/A   Clear
6:15 PM 57.2 °F - 28.4 °F 33% 29.85 in 10.0 mi SSW 8.1 mph - N/A   Clear
6:35 PM 53.6 °F - 28.4 °F 38% 29.85 in 10.0 mi South 9.2 mph - N/A   Clear
6:55 PM 53.6 °F - 30.2 °F 41% 29.86 in 10.0 mi South 10.4 mph - N/A   Clear
7:15 PM 51.8 °F - 30.2 °F 44% 29.87 in 10.0 mi South 9.2 mph - N/A   Clear
7:35 PM 53.6 °F - 30.2 °F 41% 29.87 in 10.0 mi South 12.7 mph - N/A   Clear
7:55 PM 53.6 °F - 30.2 °F 41% 29.87 in 10.0 mi South 12.7 mph - N/A   Clear
8:15 PM 51.8 °F - 30.2 °F 44% 29.87 in 10.0 mi South 15.0 mph - N/A   Clear
8:35 PM 51.8 °F - 30.2 °F 44% 29.87 in 10.0 mi South 12.7 mph - N/A   Clear
8:55 PM 51.8 °F - 30.2 °F 44% 29.88 in 10.0 mi South 12.7 mph - N/A   Clear
9:15 PM 51.8 °F - 30.2 °F 44% 29.88 in 10.0 mi South 11.5 mph - N/A   Clear
9:35 PM 48.2 °F - 30.2 °F 50% 29.88 in 10.0 mi South 11.5 mph - N/A   Clear
9:55 PM 48.2 °F - 28.4 °F 46% 29.88 in 10.0 mi South 11.5 mph - N/A   Clear
10:15 PM 48.2 °F - 30.2 °F 50% 29.88 in 10.0 mi SSW 10.4 mph - N/A   Clear